Weather History for Jaipur / Sanganer, India

Change the Weather History Date:

Tuesday, February 19, 2013

  Actual Average Record
Temperature  
Mean Temperature 63 °F -  
Max Temperature 74 °F - - ()
Min Temperature 52 °F - - ()
Degree Days  
Heating Degree Days 2    
Growing Degree Days 13 (Base 50)    
Moisture  
Dew Point 49 °F    
Average Humidity 56    
Maximum Humidity 83    
Minimum Humidity 29    
Precipitation  
Precipitation 0.00 in - - ()
Sea Level Pressure  
Sea Level Pressure 30.01 in    
Wind  
Wind Speed 2 mph ()    
Max Wind Speed 7 mph    
Max Gust Speed -    
Visibility 1.5 miles    
Events      
T = Trace of Precipitation, MM = Missing Value Source: Averaged Metar Reports

Daily Weather History Graph

Daily Weather History Graph

Search for Another Location

Airport:

Trip Planner

Search our weather history database for the weather conditions in past years. The results will help you decide how hot, cold, wet, or windy it might be!

Date:

Astronomy

Feb. 19, 2013 Rise Set
Actual Time 6:59 AM IST 6:21 PM IST
Civil Twilight 6:36 AM IST 6:45 PM IST
Nautical Twilight 6:09 AM IST 7:12 PM IST
Astronomical Twilight 5:42 AM IST 7:39 PM IST
Moon 12:47 PM IST (2/19) 1:52 AM IST (2/19)
Length of Visible Light 12h 08m
Length of Day
11h 21m
Waxing Gibbous, 63% of the Moon is Illuminated
Feb 19
Waxing Gibbous
Feb 26
Full
Mar 5
Last Quarter
Mar 12
New
Mar 19
First Quarter

Hourly Weather History & Observations

Time (IST) Temp. Dew Point Humidity Pressure Visibility Wind Dir Wind Speed Gust Speed Precip Events Conditions
12:00 AM 59.0 °F 46.4 °F 63% 29.98 in 1.2 mi Calm Calm - N/A   Smoke
2:00 AM 66.2 °F 46.4 °F 49% 29.98 in 1.2 mi Calm Calm - N/A   Smoke
5:00 AM 55.4 °F 44.6 °F 67% 29.95 in 1.2 mi Calm Calm - N/A   Smoke
5:30 AM 54 °F 45 °F 62% 29.98 in 1 mi Calm Calm - -   Smoke
7:00 AM 53.6 °F 44.6 °F 72% 29.98 in 1.2 mi Calm Calm - N/A   Smoke
8:00 AM 53.6 °F 44.6 °F 72% 30.01 in 1.2 mi Calm Calm - N/A   Smoke
8:30 AM 57 °F 53 °F 83% 30.04 in 1 mi Calm Calm - -   Mist
9:00 AM 60.8 °F 53.6 °F 77% 30.04 in 1.6 mi Variable 2.3 mph - N/A   Scattered Clouds
9:30 AM 62.6 °F 50.0 °F 63% 30.06 in 1.6 mi East 4.6 mph - N/A   Haze
10:00 AM 64.4 °F 50.0 °F 59% 30.06 in 1.6 mi Variable 2.3 mph - N/A   Haze
10:30 AM 66.2 °F 46.4 °F 49% 30.06 in 1.6 mi ESE 5.8 mph - N/A   Haze
11:00 AM 66.2 °F 44.6 °F 46% 30.06 in 1.6 mi SE 3.5 mph - N/A   Haze
11:30 AM 67 °F 49 °F 41% 30.02 in 1 mi SSE 6.9 mph - -   Haze
11:30 AM 66.2 °F 48.2 °F 52% 30.04 in 1.6 mi SSE 4.6 mph - N/A   Haze
12:00 PM 68.0 °F 48.2 °F 49% 30.04 in 1.6 mi SSE 5.8 mph - N/A   Haze
1:00 PM 68.0 °F 46.4 °F 46% 30.04 in 1.6 mi South 4.6 mph - N/A   Haze
2:30 PM 74 °F 48 °F 29% 29.92 in 2 mi West 6.9 mph - -   Haze
3:00 PM 71.6 °F 44.6 °F 38% 29.98 in 2.5 mi West 6.9 mph - N/A   Haze
4:00 PM 71.6 °F 46.4 °F 41% 29.95 in 2.5 mi WSW 6.9 mph - N/A   Haze
5:00 PM 71.6 °F 48.2 °F 43% 29.95 in 2.5 mi SSW 4.6 mph - N/A   Haze
8:00 PM 66.2 °F 50.0 °F 56% 30.01 in 1.9 mi NE 5.8 mph - N/A   Haze
8:30 PM 66 °F 49 °F 44% 29.98 in 1 mi East 4.6 mph - -   Haze
9:00 PM 68.0 °F 57.2 °F 68% 30.04 in 1.6 mi ENE 5.8 mph - N/A   Scattered Clouds
10:00 PM 71.6 °F 59.0 °F 64% 30.04 in 1.2 mi Variable 2.3 mph - N/A   Smoke
11:00 PM 64.4 °F 55.4 °F 73% 30.04 in 1.2 mi NE 2.3 mph - N/A   Smoke
11:30 PM 62 °F 52 °F 62% 30.03 in 1 mi Calm Calm - -   Smoke